Change the Weather History Date:

Saturday, September 7, 2013

  Actual Average Record
Temperature  
Mean Temperature 69 °F 67 °F  
Max Temperature 81 °F 78 °F 99 °F (1981)
Min Temperature 56 °F 55 °F 42 °F (1992)
Degree Days  
Heating Degree Days 0 1  
Month to date heating degree days 0 7  
Since 1 July heating degree days 5 34  
Cooling Degree Days 4 3  
Month to date cooling degree days 29 21  
Year to date cooling degree days 482 384  
Growing Degree Days 20 (Base 50)    
Moisture  
Dew Point 58 °F    
Average Humidity 73    
Maximum Humidity 100    
Minimum Humidity 45    
Precipitation  
Precipitation 0.00 in 0.04 in 1.55 in (2010)
Month to date precipitation 1.42 0.27  
Year to date precipitation 16.70 20.71  
Snow  
Snow 0.00 in - - ()
Month to date snowfall 0.0  
Snow Depth 0.00 in    
Sea Level Pressure  
Sea Level Pressure 30.03 in    
Wind  
Wind Speed 4 mph (WNW)    
Max Wind Speed 13 mph    
Max Gust Speed 15 mph    
Visibility 9 miles    
Events      
T = Trace of Precipitation, MM = Missing Value Source: NWS Daily Summary

Daily Weather History Graph

Daily Weather History Graph

Search for Another Location

Airport or City:

Trip Planner

Search our weather history database for the weather conditions in past years. The results will help you decide how hot, cold, wet, or windy it might be!

Date:

Astronomy

Sep. 07, 2013 Rise Set
Actual Time 6:39 AM PDT 7:36 PM PDT
Civil Twilight 6:09 AM PDT 8:06 PM PDT
Nautical Twilight 5:33 AM PDT 8:42 PM PDT
Astronomical Twilight 4:55 AM PDT 9:20 PM PDT
Moon 9:09 AM PDT (9/7) 8:26 PM PDT (9/7)
Length of Visible Light 13h 57m
Length of Day
12h 56m
Waxing Crescent, 6% of the Moon is Illuminated
Sep 7
Waxing Crescent
Sep 12
First Quarter
Sep 19
Full
Sep 26
Last Quarter
Oct 4
New

Hourly Weather History & Observations

Time (PDT) Temp. Heat Index Dew Point Humidity Pressure Visibility Wind Dir Wind Speed Gust Speed Precip Events Conditions
12:53 AM 60.1 °F - 57.0 °F 90% 30.11 in 10.0 mi Calm Calm - N/A   Partly Cloudy
1:28 AM 59.0 °F - 57.2 °F 94% 30.11 in 10.0 mi Calm Calm - N/A   Partly Cloudy
1:53 AM 57.9 °F - 57.0 °F 97% 30.10 in 10.0 mi Calm Calm - N/A   Scattered Clouds
2:53 AM 55.9 °F - 55.0 °F 97% 30.09 in 10.0 mi Calm Calm - N/A   Partly Cloudy
3:51 AM 55.4 °F - 55.4 °F 100% 30.08 in 4.0 mi SSW 3.5 mph - N/A   Mostly Cloudy
3:53 AM 55.9 °F - 55.9 °F 100% 30.08 in 4.0 mi Calm Calm - N/A   Mostly Cloudy
4:53 AM 59.0 °F - 57.9 °F 96% 30.08 in 5.0 mi Calm Calm - N/A   Overcast
5:53 AM 59.0 °F - 57.9 °F 96% 30.07 in 10.0 mi Calm Calm - N/A   Mostly Cloudy
6:53 AM 59.0 °F - 55.9 °F 90% 30.07 in 10.0 mi SE 5.8 mph - N/A   Overcast
7:53 AM 60.1 °F - 57.0 °F 90% 30.07 in 10.0 mi East 4.6 mph - N/A   Overcast
8:53 AM 62.1 °F - 57.0 °F 84% 30.06 in 10.0 mi Calm Calm - N/A   Overcast
9:53 AM 63.0 °F - 57.0 °F 81% 30.06 in 10.0 mi WNW 4.6 mph - N/A   Overcast
10:53 AM 64.9 °F - 57.0 °F 75% 30.05 in 10.0 mi Calm Calm - N/A   Scattered Clouds
11:53 AM 68.0 °F - 59.0 °F 73% 30.04 in 10.0 mi NW 6.9 mph - N/A   Clear
12:53 PM 72.0 °F - 57.9 °F 61% 30.02 in 10.0 mi WNW 10.4 mph - N/A   Partly Cloudy
1:53 PM 73.9 °F - 57.9 °F 57% 30.01 in 10.0 mi WNW 9.2 mph - N/A   Clear
2:53 PM 78.1 °F - 57.0 °F 48% 29.99 in 10.0 mi WNW 10.4 mph - N/A   Partly Cloudy
3:53 PM 79.0 °F - 57.9 °F 48% 29.97 in 10.0 mi WNW 8.1 mph - N/A   Partly Cloudy
4:53 PM 80.1 °F 80.6 °F 57.9 °F 47% 29.96 in 10.0 mi NW 8.1 mph - N/A   Partly Cloudy
5:53 PM 79.0 °F - 57.9 °F 48% 29.96 in 10.0 mi NNW 8.1 mph - N/A   Partly Cloudy
6:53 PM 77.0 °F - 59.0 °F 54% 29.96 in 10.0 mi NNW 3.5 mph - N/A   Partly Cloudy
7:53 PM 73.9 °F - 60.1 °F 62% 29.97 in 10.0 mi NW 9.2 mph - N/A   Partly Cloudy
8:53 PM 72.0 °F - 60.1 °F 66% 29.98 in 10.0 mi West 6.9 mph - N/A   Clear
9:53 PM 70.0 °F - 60.1 °F 71% 29.99 in 10.0 mi West 8.1 mph - N/A   Clear
10:53 PM 68.0 °F - 60.1 °F 76% 30.00 in 10.0 mi WNW 10.4 mph - N/A   Clear
11:53 PM 66.9 °F - 59.0 °F 76% 30.00 in 10.0 mi WNW 3.5 mph - N/A   Clear